Terminal Aerodrome Forecast
Issued by NWS Spokane, WA

Home | Current Version | Previous Version | Text Only | Print | Product List | Glossary On
Versions: 1 2 3 4 5 6 7 8 9 10 11 12 13 14 15 16 17 18 19 20 21 22 23 24 25 26 27 28 29 30 31 32
000
FTUS46 KOTX 230015 AAA
TAFLWS
TAF AMD
KLWS 230015Z 2300/2324 33009G15KT P6SM TSRA BKN070CB BKN100
     FM230300 15006KT P6SM VCSH SCT070 BKN090
     FM230800 VRB04KT P6SM FEW080 BKN150
     FM231600 32005KT P6SM FEW060 SCT100
     FM231800 31006KT P6SM VCSH BKN080 BKN120=

USA.gov is the U.S. government's official web portal to all federal, state and local government web resources and services.